カタログに戻る

METEOR 2-15

運用中気象PO
NORAD 17290·PAYLOAD·🇷🇺 Russia

打ち上げ Jan 5, 1987 から Plesetsk Cosmodrome

Loading…

次のパス (今後24時間)

TLE

最新Source: Space-Track

元期: Sep 14, 2026, 18:37 UTC

1 17290U 87001A   26257.77599533  .00000042  00000-0  23891-4 0  9998
2 17290  82.4695  23.8266 0011723 283.0924  76.8928 13.85274917  6221

AllMySatでMETEOR 2-15をリアルタイム追跡

Download on the App Store